This is the latest recevied weather packets stored in our database for station/object N0NB. If no packets are shown the sender has not sent any weather packets the latest 10 day(s).
| Time | Temp. | Humidity | Pressure | Rain* | Wind** | Luminosity | Snow |
|---|---|---|---|---|---|---|---|
| 1778088016 | 13.33° C | 38% | 1018.7 hPa | 0 mm | - | 653 W/m² | - |
| 1778087416 | 13.33° C | 37% | 1018.9 hPa | 0 mm | - | 798 W/m² | - |
| 1778086816 | 13.33° C | 36% | 1018.9 hPa | 0 mm | - | 792 W/m² | - |
| 1778086216 | 12.78° C | 36% | 1018.9 hPa | 0 mm | - | 818 W/m² | - |
| 1778085616 | 12.78° C | 36% | 1019 hPa | 0 mm | - | 774 W/m² | - |
| 1778085016 | 12.78° C | 35% | 1019.1 hPa | 0 mm | - | 771 W/m² | - |
| 1778084416 | 12.78° C | 41% | 1019.2 hPa | 0 mm | - | 759 W/m² | - |
| 1778083816 | 12.78° C | 43% | 1019.1 hPa | 0 mm | - | 696 W/m² | - |
| 1778083216 | 12.22° C | 39% | 1019 hPa | 0 mm | - | 746 W/m² | - |
| 1778082616 | 12.22° C | 40% | 1019 hPa | 0 mm | - | 686 W/m² | - |
| 1778082016 | 11.67° C | 46% | 1018.9 hPa | 0 mm | - | 561 W/m² | - |
| 1778081416 | 11.11° C | 48% | 1019 hPa | 0 mm | - | 351 W/m² | - |
| 1778080816 | 10.56° C | 45% | 1018.9 hPa | 0 mm | - | 410 W/m² | - |
| 1778080216 | 10.56° C | 48% | 1018.8 hPa | 0 mm | - | 278 W/m² | - |
| 1778079616 | 10° C | 46% | 1018.7 hPa | 0 mm | - | 229 W/m² | - |
| 1778079016 | 10° C | 47% | 1018.5 hPa | 0 mm | - | 231 W/m² | - |
| 1778078416 | 10° C | 49% | 1018.5 hPa | 0 mm | - | 204 W/m² | - |
| 1778077816 | 9.44° C | 49% | 1018.5 hPa | 0 mm | - | 208 W/m² | - |
| 1778077216 | 9.44° C | 53% | 1018.4 hPa | 0 mm | - | 166 W/m² | - |
| 1778076616 | 9.44° C | 50% | 1018.4 hPa | 0 mm | - | 147 W/m² | - |
| 1778076016 | 9.44° C | 52% | 1018.5 hPa | 0 mm | - | 166 W/m² | - |
| 1778075416 | 9.44° C | 54% | 1018.6 hPa | 0 mm | - | 226 W/m² | - |
| 1778074816 | 9.44° C | 52% | 1018.4 hPa | 0 mm | - | 251 W/m² | - |
| 1778074216 | 8.33° C | 59% | 1018.2 hPa | 0 mm | - | 207 W/m² | - |
| 1778073616 | 7.78° C | 59% | 1018 hPa | 0 mm | - | 137 W/m² | - |
* Rain latest hour (hover to see other rain measurements)
** Current wind speed in m/s (hover to see current wind gust speed)